Starlink 30703

operational
NORAD ID: 57954 Int'l Des: 2023-148 Owner: SPXS Country: US Constellation: starlink
LEOCIRCULAR

About Starlink 30703

Description loading...

Live Position

Loading 3D Globe...

Upcoming Passes

Altitude History

Altitude vs Time

uPlot chart will show altitude changes over time

Two-Line Element Set

1 57954U 23148V 25257.86747896 -.00000096 00000-0 88730-5 0 9991
2 57954 53.1598 110.8499 0000882 74.6545 285.4553 15.30193640111641
Epoch: Sep 14, 2025 • Age: 23 hours

Current Status

Altitude 487.0 km
Velocity 7.62 km/s
Sub-Earth Point -35.77°S, 136.9°E
Launch Date Sep 25, 2023
Age 1.9 years
Type internet

Technical Details

Classification Payload
Mass 730.00 kg
Dry Mass 700.00 kg
Total Mass 730.00 kg
Length 0.30 m
Diameter 4.10 m
Span 29.00 m
Shape Box + pan
Manufacturer SPXS
Bus Type Starlink V2M
Phase Status In Orbit
Owner/State SPXS/US

Large Constellations

Loading constellations...